[[{"header":{"parameterUnit":"m.s-1","parameterCategory":1,"la1":30.2991,"la2":30.254,"lo1":-89.0895,"lo2":-89.0444,"dy":0.0017,"dx":0.0017,"nx":28,"ny":28,"refTime":"2024-08-21T09:00:00:Z","depth":0,"parameterNumber":2,"parameterNumberName":"U-component_of_WINDS"},"data":[0,0,0,0,0,0,0,0,0,0,0,0,0,0,0,0,0,0,0,0,0,0,0,0,0,0,0,0,0,0,0,0,0,0,0,0,0,0,0,0,0,0,0,0,0,0,0,0,0,0,0,0,0,0,0,0,0,0,-2.0921,-2.0921,0,-2.0887,-2.0887,-2.0887,-2.0783,-2.078,-2.0778,-2.0776,-2.0743,-2.0744,-2.0746,0,0,0,0,0,0,0,0,0,0,0,0,0,-2.0897,-2.0898,-2.0921,-2.0921,-2.092,-2.0887,-2.0887,-2.0886,-2.0783,-2.078,-2.0778,-2.0775,-2.0743,-2.0744,-2.0746,0,0,0,0,0,0,0,0,0,0,0,0,0,-2.089,-2.0898,-2.0921,-2.0865,-2.0859,-2.0887,-2.0887,-2.0886,-2.0784,-2.078,-2.0777,-2.0774,-2.0742,-2.0744,-2.0746,-2.0827,0,0,-2.0752,-2.0753,0,0,0,0,0,0,0,0,-2.089,-2.0891,-2.0873,-2.0869,-2.0863,-2.0836,-2.0866,-2.0866,-2.0785,-2.0813,-2.0776,-2.0772,-2.0777,-2.0776,-2.0777,-2.0825,-2.0824,-2.0752,-2.0753,-2.0754,-2.0755,0,0,0,0,0,0,0,-2.0891,-2.0892,-2.0908,-2.0873,-2.0867,-2.0841,-2.0836,-2.0866,-2.0815,-2.081,-2.0802,-2.0799,-2.0773,-2.0775,-2.0775,-2.0823,-2.0752,-2.0754,-2.0755,-2.0756,-2.0934,-2.0937,0,0,0,0,0,0,-2.0899,-2.0893,-2.0909,-2.0907,-2.0868,-2.0844,-2.0839,-2.0848,-2.0814,-2.0805,-2.0802,-2.0795,-2.0774,-2.0773,-2.0774,-2.0864,-2.0754,-2.0756,-2.0757,-2.093,-2.0935,-2.0939,0,0,0,0,0,0,-2.0899,-2.0902,-2.091,-2.0898,-2.0897,-2.0848,-2.0859,-2.0849,-2.0851,-2.0808,-2.0799,-2.0814,-2.0771,-2.0771,-2.0814,-2.0862,-2.0757,-2.0758,-2.0926,-2.0932,-2.0937,-2.1048,0,0,0,0,0,0,-2.0899,-2.0902,-2.0932,-2.0899,-2.0898,-2.0951,-2.0862,-2.0851,-2.0854,-2.0844,-2.0817,-2.0809,-2.0768,-2.0811,-2.0816,-2.0863,-2.076,-2.0921,-2.0929,-2.0935,-2.1039,-2.1056,-2.107,0,0,0,0,0,-2.0898,-2.0966,-2.0934,-2.0937,-2.0934,-2.0954,-2.0953,-2.0905,-2.0859,-2.0888,-2.0861,-2.081,-2.0856,-2.0817,-2.0821,-2.0869,-2.0918,-2.0927,-2.0934,-2.1032,-2.1053,-2.107,0,0,0,0,0,0,-2.1007,-2.096,-2.0925,-2.0984,-2.0973,-2.0936,-2.0972,-2.0928,-2.0931,-2.0921,-2.0862,-2.0857,-2.0907,-2.0892,-2.0849,-2.0944,-2.0879,-2.0888,-2.0952,-2.0971,-2.0986,-2.0988,-2.0761,0,0,0,0,0,-2.1038,-2.1057,-2.1015,-2.1071,-2.1068,-2.1021,-2.1028,-2.0991,-2.0979,-2.0974,-2.0949,-2.0939,-2.0951,-2.096,-2.0969,-2.1037,-2.1029,-2.1072,-2.1088,-2.11,-2.1109,-2.1142,-2.116,-2.0965,-2.0965,-2.0965,0,0,-2.1102,-2.1079,-2.1095,-2.1092,-2.108,-2.1101,-2.1018,-2.1045,-2.106,-2.0978,-2.1016,-2.0998,-2.0982,-2.1037,-2.106,-2.1026,-2.1161,-2.1111,-2.1121,-2.1123,-2.1152,-2.117,-2.1187,-2.0971,-2.097,-2.0969,0,0,-2.1228,-2.1214,-2.1257,-2.1246,-2.1228,-2.1196,-2.1207,-2.1176,-2.1161,-2.1198,-2.1136,-2.1154,-2.1176,-2.1167,-2.1165,-2.1288,-2.124,-2.1292,-2.1373,-2.1406,-2.1421,-2.1434,-2.1476,-2.1492,-2.1301,-2.1301,-2.1301,0,-2.131,-2.1339,-2.1286,-2.1315,-2.1315,-2.1242,-2.1285,-2.1277,-2.1264,-2.1266,-2.1228,-2.1253,-2.1238,-2.1289,-2.1318,-2.132,-2.133,-2.1295,-2.1423,-2.1436,-2.1447,-2.1487,-2.1503,-2.1308,-2.1307,-2.1306,-2.1306,0,-2.144,-2.1461,-2.1498,-2.1485,-2.149,-2.1527,-2.1479,-2.149,-2.1453,-2.1426,-2.1464,-2.1443,-2.1445,-2.1455,-2.142,-2.15,-2.148,-2.1434,-2.1366,-2.1473,-2.1509,-2.1524,-2.1317,-2.1314,-2.1312,-2.1311,0,0,-2.1634,-2.159,-2.1604,-2.1597,-2.1571,-2.1586,-2.162,-2.1621,-2.1631,-2.1624,-2.165,-2.167,-2.1626,-2.1625,-2.1588,-2.1617,-2.1713,-2.1567,-2.1565,-2.1593,-2.1799,-2.1833,-2.1851,-2.1682,-2.1684,-2.1686,-2.1799,0,-2.1752,-2.1805,-2.1758,-2.182,-2.1838,-2.1768,-2.1796,-2.1784,-2.1759,-2.177,-2.1743,-2.1757,-2.17,-2.1698,-2.1724,-2.1696,-2.1753,-2.1687,-2.1704,-2.1705,-2.1709,-2.187,-2.1906,-2.2014,-2.1813,-2.1816,-2.1817,0,-2.1898,-2.1896,-2.196,-2.1928,-2.1933,-2.196,-2.1956,-2.1969,-2.1953,-2.1932,-2.193,-2.1885,-2.1914,-2.185,-2.1889,-2.1846,-2.185,-2.1837,-2.184,-2.1839,-2.1767,-2.1871,-2.2047,-2.2063,-2.1839,-2.1838,-2.1836,0,-2.2031,-2.2045,-2.2083,-2.208,-2.2044,-2.2064,-2.2051,-2.2031,-2.2034,-2.2032,-2.2033,-2.2035,-2.2035,-2.2038,-2.1993,-2.1951,-2.2038,-2.197,-2.2022,-2.2023,-2.2042,-2.2041,-2.2219,-2.2048,-2.2048,-2.2048,-2.2047,0,-2.2167,-2.2209,-2.2142,-2.2167,-2.2211,-2.2156,-2.2201,-2.218,-2.2163,-2.2181,-2.2122,-2.2141,-2.2082,-2.2094,-2.2061,-2.2098,-2.2099,-2.2083,-2.2073,-2.2087,-2.2089,-2.2088,-2.2079,-2.2052,-2.2051,-2.205,-2.2049,0,-2.2323,-2.2281,-2.2318,-2.2281,-2.2273,-2.2307,-2.2275,-2.2295,-2.2266,-2.2291,-2.2293,-2.2248,-2.2259,-2.2216,-2.2221,-2.2198,-2.2252,-2.2231,-2.2257,-2.225,-2.2303,-2.2298,-2.2486,-2.2507,-2.2324,-2.2326,-2.2327,0,-2.2412,-2.2442,-2.2407,-2.2415,-2.2404,-2.2418,-2.242,-2.2367,-2.2373,-2.2356,-2.2378,-2.2385,-2.2387,-2.2409,-2.2376,-2.2379,-2.2356,-2.2422,-2.2357,-2.2369,-2.2355,-2.2353,-2.2355,-2.2435,-2.2438,-2.2439,-2.2441,0,-2.2574,-2.2551,-2.2557,-2.2555,-2.2559,-2.2556,-2.2548,-2.2558,-2.2501,-2.251,-2.2521,-2.2522,-2.2526,-2.2533,-2.2529,-2.2515,-2.2469,-2.2462,-2.2473,-2.2488,-2.2501,-2.2492,-2.2293,-2.2458,-2.2456,-2.2455,-2.2454,-2.2453,-2.2697,-2.272,-2.2698,-2.2707,-2.2695,-2.2689,-2.2706,-2.2678,-2.2686,-2.2684,-2.2653,-2.2669,-2.2651,-2.2641,-2.2631,-2.2643,-2.2613,-2.263,-2.2634,-2.2639,-2.2647,-2.25,-2.2643,-2.2642,-2.2642,-2.2641,-2.2641,0,-2.2854,-2.2837,-2.2845,-2.2835,-2.2841,-2.2797,-2.2786,-2.2794,-2.2809,-2.2796,-2.2798,-2.281,-2.2816,-2.2784,-2.2786,-2.2801,-2.278,-2.2803,-2.2801,-2.2798,-2.2676,-2.2664,-2.282,-2.282,-2.282,-2.282,-2.282,-2.282,-2.2937,-2.2971,-2.2946,-2.2975,-2.2957,-2.2972,-2.2969,-2.2963,-2.2952,-2.2967,-2.2971,-2.295,-2.2929,-2.2928,-2.2932,-2.2922,-2.2925,-2.2955,-2.2938,-2.2824,-2.2807,-2.279,-2.2779,-2.2957,-2.2957,-2.3059,-2.306,-2.3061]},{"header":{"parameterUnit":"m.s-1","parameterCategory":1,"la1":30.2991,"la2":30.254,"lo1":-89.0895,"lo2":-89.0444,"dy":0.0017,"dx":0.0017,"nx":28,"ny":28,"refTime":"2024-08-21T09:00:00:Z","depth":0,"parameterNumber":3,"parameterNumberName":"V-component_of_WINDS"},"data":[0,0,0,0,0,0,0,0,0,0,0,0,0,0,0,0,0,0,0,0,0,0,0,0,0,0,0,0,0,0,0,0,0,0,0,0,0,0,0,0,0,0,0,0,0,0,0,0,0,0,0,0,0,0,0,0,0,0,-3.6096,-3.6096,0,-3.6127,-3.6127,-3.6128,-3.605,-3.6047,-3.6045,-3.6043,-3.6074,-3.6077,-3.608,0,0,0,0,0,0,0,0,0,0,0,0,0,-3.5966,-3.5969,-3.6096,-3.6096,-3.6096,-3.6127,-3.6127,-3.6128,-3.605,-3.6047,-3.6044,-3.6041,-3.6073,-3.6077,-3.608,0,0,0,0,0,0,0,0,0,0,0,0,0,-3.6013,-3.597,-3.6096,-3.6061,-3.6059,-3.6127,-3.6127,-3.6128,-3.6051,-3.6047,-3.6043,-3.604,-3.6072,-3.6076,-3.6081,-3.6183,0,0,-3.6095,-3.6097,0,0,0,0,0,0,0,0,-3.601,-3.6017,-3.6066,-3.6064,-3.6061,-3.6081,-3.6093,-3.6146,-3.6052,-3.6054,-3.6042,-3.6038,-3.6079,-3.6083,-3.6097,-3.6185,-3.6186,-3.6096,-3.6098,-3.61,-3.6102,0,0,0,0,0,0,0,-3.6007,-3.6016,-3.6108,-3.6067,-3.6064,-3.6044,-3.6046,-3.6103,-3.6087,-3.6053,-3.6048,-3.6053,-3.6077,-3.6093,-3.6097,-3.6187,-3.6095,-3.61,-3.6102,-3.6104,-3.6357,-3.6361,0,0,0,0,0,0,-3.6008,-3.6014,-3.6107,-3.6109,-3.6026,-3.6049,-3.6052,-3.6078,-3.6086,-3.6083,-3.6056,-3.6049,-3.6086,-3.6092,-3.6098,-3.6217,-3.61,-3.6105,-3.6107,-3.6354,-3.6358,-3.6363,0,0,0,0,0,0,-3.6006,-3.6017,-3.6106,-3.606,-3.6069,-3.6055,-3.6085,-3.6081,-3.6096,-3.6088,-3.6084,-3.6075,-3.6084,-3.6091,-3.6162,-3.6217,-3.6107,-3.6111,-3.6349,-3.6355,-3.636,-3.6456,0,0,0,0,0,0,-3.6003,-3.6017,-3.6057,-3.6061,-3.6072,-3.6171,-3.6089,-3.6084,-3.6104,-3.6096,-3.6105,-3.6102,-3.6081,-3.6156,-3.6167,-3.6221,-3.6115,-3.6344,-3.6352,-3.6359,-3.6448,-3.6465,-3.6479,0,0,0,0,0,-3.5998,-3.6083,-3.6059,-3.6071,-3.6121,-3.6174,-3.618,-3.6154,-3.6109,-3.6148,-3.6142,-3.6102,-3.6209,-3.6163,-3.6175,-3.6232,-3.634,-3.635,-3.6358,-3.6441,-3.6461,-3.6478,0,0,0,0,0,0,-3.6085,-3.6083,-3.6056,-3.6145,-3.616,-3.6161,-3.6209,-3.6177,-3.6205,-3.6196,-3.6162,-3.6165,-3.6241,-3.6244,-3.6193,-3.633,-3.6267,-3.6279,-3.6326,-3.6345,-3.636,-3.6358,-3.6119,0,0,0,0,0,-3.6115,-3.6158,-3.6153,-3.6232,-3.6241,-3.6224,-3.6246,-3.6224,-3.6239,-3.6245,-3.6244,-3.6259,-3.6295,-3.6321,-3.6354,-3.6448,-3.6448,-3.6493,-3.6508,-3.6521,-3.6531,-3.6579,-3.6598,-3.6392,-3.6391,-3.6391,0,0,-3.6176,-3.618,-3.621,-3.6249,-3.6259,-3.6303,-3.623,-3.6281,-3.6313,-3.6252,-3.6319,-3.6319,-3.6333,-3.6416,-3.6452,-3.642,-3.6588,-3.6532,-3.6542,-3.6545,-3.659,-3.6609,-3.6627,-3.6398,-3.6396,-3.6395,0,0,-3.6311,-3.6319,-3.6384,-3.6394,-3.6409,-3.6397,-3.6413,-3.6418,-3.6415,-3.6481,-3.6436,-3.6474,-3.6538,-3.655,-3.6564,-3.6701,-3.6664,-3.6712,-3.6792,-3.6839,-3.6856,-3.687,-3.6917,-3.6935,-3.6723,-3.6723,-3.6723,0,-3.6385,-3.6451,-3.6422,-3.6475,-3.6493,-3.644,-3.6505,-3.6516,-3.6541,-3.6554,-3.6518,-3.6596,-3.6603,-3.6686,-3.6719,-3.6733,-3.6749,-3.6711,-3.6856,-3.687,-3.6883,-3.6927,-3.6945,-3.6729,-3.6728,-3.6727,-3.6727,0,-3.6541,-3.6587,-3.6638,-3.6663,-3.6686,-3.6746,-3.6724,-3.6752,-3.6728,-3.6719,-3.6786,-3.6791,-3.6824,-3.6842,-3.682,-3.6922,-3.6902,-3.6862,-3.6797,-3.6908,-3.695,-3.6967,-3.6737,-3.6735,-3.6733,-3.6732,0,0,-3.6732,-3.6738,-3.6757,-3.6767,-3.6778,-3.6813,-3.6869,-3.6901,-3.6924,-3.6943,-3.6988,-3.7043,-3.7005,-3.7021,-3.6999,-3.7041,-3.7146,-3.6995,-3.6994,-3.7022,-3.7257,-3.7287,-3.7307,-3.7122,-3.7126,-3.7128,-3.7256,0,-3.6863,-3.6959,-3.6934,-3.7029,-3.707,-3.7019,-3.7067,-3.7079,-3.7072,-3.7106,-3.7098,-3.7136,-3.7084,-3.7093,-3.7132,-3.7126,-3.7193,-3.7116,-3.7163,-3.7165,-3.716,-3.7329,-3.7361,-3.7481,-3.7272,-3.7274,-3.7276,0,-3.703,-3.7054,-3.7154,-3.7156,-3.7172,-3.7216,-3.7242,-3.7275,-3.7287,-3.7278,-3.7296,-3.7265,-3.7319,-3.7254,-3.7327,-3.7275,-3.7293,-3.7292,-3.7296,-3.7299,-3.7227,-3.7335,-3.7519,-3.7537,-3.7302,-3.73,-3.7298,0,-3.7157,-3.7215,-3.7281,-3.7291,-3.7296,-3.7328,-3.7331,-3.7339,-3.7359,-3.7382,-3.7394,-3.7423,-3.7438,-3.7461,-3.7438,-3.7393,-3.7514,-3.7448,-3.7507,-3.7508,-3.7535,-3.7533,-3.7723,-3.7548,-3.7548,-3.7547,-3.7547,0,-3.7306,-3.7369,-3.7338,-3.7379,-3.7447,-3.7416,-3.7484,-3.7481,-3.7488,-3.7527,-3.7485,-3.7522,-3.749,-3.7524,-3.7507,-3.7568,-3.7576,-3.757,-3.7565,-3.7573,-3.7574,-3.7584,-3.7575,-3.7552,-3.7551,-3.755,-3.7549,0,-3.746,-3.7442,-3.7511,-3.7509,-3.751,-3.756,-3.7559,-3.7596,-3.7585,-3.7634,-3.7644,-3.7627,-3.7665,-3.7645,-3.7684,-3.7672,-3.7751,-3.7735,-3.7748,-3.7743,-3.7803,-3.7797,-3.8005,-3.803,-3.784,-3.7842,-3.7844,0,-3.7556,-3.7603,-3.7606,-3.7628,-3.7634,-3.7672,-3.7692,-3.7663,-3.7685,-3.77,-3.7735,-3.7769,-3.7794,-3.7857,-3.7848,-3.7877,-3.786,-3.7931,-3.7864,-3.7871,-3.7859,-3.7856,-3.786,-3.7944,-3.7946,-3.7948,-3.7949,0,-3.7727,-3.7716,-3.7746,-3.7773,-3.7797,-3.7817,-3.7833,-3.7854,-3.7825,-3.7852,-3.789,-3.791,-3.7948,-3.7982,-3.8007,-3.8009,-3.7975,-3.797,-3.7985,-3.7995,-3.7999,-3.7996,-3.7783,-3.7966,-3.7964,-3.7963,-3.7962,-3.7961,-3.7854,-3.7892,-3.79,-3.7934,-3.7943,-3.7959,-3.7993,-3.7986,-3.8017,-3.8046,-3.8027,-3.8071,-3.8079,-3.8109,-3.8116,-3.8149,-3.8121,-3.8143,-3.8148,-3.8154,-3.8162,-3.7995,-3.8154,-3.8153,-3.8153,-3.8152,-3.8152,0,-3.8022,-3.8024,-3.8056,-3.8079,-3.8106,-3.8071,-3.8086,-3.8111,-3.815,-3.8161,-3.8186,-3.8229,-3.826,-3.8254,-3.8282,-3.831,-3.8295,-3.8318,-3.8316,-3.8316,-3.8186,-3.817,-3.833,-3.833,-3.833,-3.833,-3.833,-3.833,-3.8112,-3.8175,-3.8164,-3.8229,-3.823,-3.8273,-3.8285,-3.8298,-3.8306,-3.8355,-3.8382,-3.8377,-3.838,-3.8408,-3.8435,-3.8432,-3.8444,-3.8474,-3.8465,-3.8343,-3.8326,-3.8309,-3.8293,-3.8477,-3.8477,-3.8592,-3.8593,-3.8594]}]]